Regional Weather Roundup
Issued by NWS Columbia, SC

Home | Current Version | Previous Version | Text Only | Print | Product List | Glossary On
Versions: 1 2 3 4 5 6 7 8 9 10 11 12 13 14 15 16 17 18 19 20 21 22 23 24 25 26 27
000
ASUS42 KCAE 191110
RWRCAE
REGIONAL WEATHER ROUNDUP
NATIONAL WEATHER SERVICE COLUMBIA SC
600 AM EST THU JAN 19 2017

NOTE: "FAIR" INDICATES FEW OR NO CLOUDS BELOW 12,000 FEET WITH NO
SIGNIFICANT WEATHER AND/OR OBSTRUCTIONS TO VISIBILITY.

NOT ALL STATIONS ARE QUALITY CONTROLLED BY THE NATIONAL
WEATHER SERVICE. USE DATA WITH CAUTION...ESPECIALLY
DEWPOINT OBSERVATIONS.

SCZ001>056-GAZ040-063>065-077-191200-
...UPSTATE SOUTH CAROLINA...

CITY           SKY/WX    TMP DP  RH WIND       PRES   REMARKS
ANDERSON       CLEAR     46  36  68 NE5       30.04R
LIBERTY        SUNNY     39  35  84 CALM      30.04S
SPARTANBURG    CLEAR     41  32  70 NE5       30.05S
CLEMSON        CLEAR     49  35  58 NE6       30.05S
GREENVILLE     CLEAR     50  33  52 NE7       30.05F
GREENWOOD      CLEAR     42  37  82 N5        30.05S
GREER          CLEAR     47  32  56 CALM      30.05S
ROCK HILL      PTCLDY    39  34  82 CALM      30.07R
CHESTER        PTSUNNY   41  32  70 CALM      30.07R
LAURENS        SUNNY     37  32  81 NE6       30.05S WCI  33


...CENTRAL SOUTH CAROLINA...

CITY           SKY/WX    TMP DP  RH WIND       PRES   REMARKS
COLUMBIA APT   CLEAR     44  38  79 CALM      30.04R
COLUMBIA OWENS CLEAR     47  38  71 CALM      30.06R
MCENTIRE ANGB  PTCLDY    49  37  63 NE5       30.05R
ORANGEBURG     CLEAR     51  41  68 NE7       30.03R
SUMTER SHAW    CLEAR     44  37  77 NE7       30.03R
NEWBERRY       SUNNY     45  34  65 CALM      30.08S
AIKEN          FAIR      46  37  71 NE6       30.07R
BARNWELL       FAIR      54  45  71 CALM      30.03R
MANNING        FAIR      46  30  53 N5        30.04R
CAMDEN         FAIR      45  36  70 CALM      30.07R
LANCASTER      PTSUNNY   43  37  81 NE6       30.07R
WINNSBORO      MOSUNNY   46  36  66 E7        30.05R


...EASTERN AND COASTAL SOUTH CAROLINA...

CITY           SKY/WX    TMP DP  RH WIND       PRES   REMARKS
MYRTLE BEACH   CLEAR     46  43  87 N12       30.06F
N MYRTLE BCH   CLEAR     44  44 100 NE6       30.04S
CONWAY         FAIR      37  37 100 CALM      30.05F
MARION         FAIR      41  37  87 N5        30.06S
HARTSVILLE     FAIR      45  36  70 NE8       30.06R
FLORENCE       CLEAR     46  39  76 NE8       30.06S
DARLINGTON     CLEAR     42  38  85 N5        30.07S
CHARLESTON APT PTCLDY    51  50  96 CALM      30.01S
MOUNT PLEASANT LGT RAIN  52  52 100 CALM      30.01S
WALTERBORO     SUNNY     50  48  93 CALM      30.03R FOG
BEAUFORT       CLEAR     56  54  93 CALM      30.02R


...EASTERN GEORGIA...

CITY           SKY/WX    TMP DP  RH WIND       PRES   REMARKS
AUGUSTA BUSH F CLEAR     49  47  93 CALM        N/A
AUGUSTA DANIEL CLEAR     54  45  71 N3        30.04R
THOMSON        CLEAR     48  48 100 CALM      30.09R
WASHINGTON     FAIR      52  50  93 CALM      30.04S
CLAXTON        FOG      N/A N/A N/A CALM      30.05S VSB 1/2
SYLVANIA       SUNNY    N/A N/A N/A CALM      30.05R FOG
STATESBORO     FOG       52  32  46 CALM      30.04R VSB 1/4
SAVANNAH       CLEAR     56  54  93 W3        30.04R


...SOUTHERN NORTH CAROLINA...

CITY           SKY/WX    TMP DP  RH WIND       PRES   REMARKS
CHARLOTTE      CLOUDY    45  36  70 E5        30.07R
MONROE         PTCLDY    44  35  70 NE6       30.05S
ASHEVILLE      CLOUDY    39  32  76 CALM      30.08R

$$




USA.gov is the U.S. government's official web portal to all federal, state and local government web resources and services.